Погода в Ныде

Погода в Ныде : погода сейчас, прогноз погоды и архив. Всё, что Вы хотите узнать о погоде в Ныде!

Хотите узнать прогноз погоды в Ныде? Тогда Вам сюда: Погода в Ныде

Поиск расширенной информации на нашем сайте:

Другие новости

Новости СМИ2

Главная страница сайта

Новости сайта

02.10.2013

Напоминаем, что на нашем новом сайте вы можете получить высокодетализированные прогнозы погоды по пунктам России, СНГ и мира (включающие важные для авиации метеовеличины, такие как направление и скорость ветра, видимость, явления погоды, количество и форма облачности, нижняя и верхняя граница облачности), а также ознакомиться с разнообразными материалами по авиационной метеорологии и подборкой полезных ссылок на эту тему.

Сайт Метеоцентр.Азия посвящён разработке технологий оптимизации авиаметеорологического обслуживания, включая проектирование и перспективное создание нескольких автоматизированных авиаметеорологических систем:
- система выпуска высокодетальных прогностических карт явлений погоды для нижнего воздушного пространства по России и ближнему зарубежью;
- система верификации прогнозов TAF (выпускаемых синоптиками официальных АМСГ РФ и ближнего зарубежья) и AUTOTAF (выпускаемых сайтом Метеоцентр.Азия) - выявление ошибок, онлайн-сопоставление с фактической погодой METAR, автоматическое внесение коррективов в прогнозы при резком отклонении фактической погоды от прогноза, подсчёт оправдываемости прогнозов по элементам и в целом;
- система обработки, анализа и отображения авиаметеорологической информации для применения провайдерами метеорологической информации.

Рекомендуем: Планирование закупок в axapta norbit.ru.

Погода в Ныде - сегодня

Время (UTC), дата Ветер
(°,м/с) 
Видим.   Явления Облачность Т
(°С)
Тd
(°С)
f(%) Тe
(°С)
Pmin
(гПа)
dP
(гПа)
Po
(мм)
O2
(г/м3)
Тmin Tmax R s Состояние
почвы
21 18.01.17 200 (Ю) 7{12}  10 км  позёмок  6/6 300 м 
[Sc]
-16.2 -18.8 80 -23  1017.4  -1.4  762  328           
00 19.01.17 190 (Ю) 6{12}  10 км    3/3 300 м 
[Sc]
-16.1 -18.8 80 -23  1016.1  -1.3  761  328           
03 19.01.17 190 (Ю) 8-10{10}  10 км  позёмок  8/5 300 м верхняя 
[Sc|Ci sp]
-16.5 -19.1 80 -24  1014.9  -1.2  760  328  -17.8      42  неравномерный
сухой снег
100% 
06 19.01.17 170 (Ю) 6{10}  20000 м    8/5 300 м средняя 
[Sc|Ac trans]
-15.8 -18.1 82 -22  1013.8  -1.1  760  326           
09 19.01.17 180 (Ю) 7{11}  20000 м  позёмок  8/4 600 м средняя 
[Sc|Ac trans]
-12.9 -15.6 80 -19  1011.5  -2.3  758  322           
12 19.01.17 170 (Ю) 10-13{13}  4000 м  метель  5/0 средняя 
[Ac trans]
-14.8 -17.5 80 -23  1008.3  -3.2  755  323           
15 19.01.17 190 (Ю) 11-14{14}  4000 м  метель  8/0 средняя 
[Ac trans]
-15.1 -17.8 80 -24  1006.4  -1.9  754  323    -12.2       
18 19.01.17 190 (Ю) 12-15{15}  4000 м  слаб. снег  10/0 средняя 
[Ac As]
-15 -17.7 80 -24  1002.7  -3.6  751  322           
21 19.01.17 220 (ЮЗ) 7{15}  10 км  позёмок{снег}  10/0 средняя 
[As trans]
-16.6 -19.2 80 -24  1000.9  -1.9  750  323           
00 20.01.17 180 (Ю) 8-11{15}  10 км  позёмок{снег}  4/0 средняя 
[Ac trans]
-17.4 -20 80 -25  998.4  -2.5  748  323           
03 20.01.17 180 (Ю) 10-14{15}  4000 м  метель  9/8 300 м средняя 
[Sc|Ac trans]
-17.1 -19.7 80 -26  996.5  -1.9  747  322  -17.5    0.3  44  неравномерный
сухой снег
100% 
06 20.01.17 200 (Ю) 12-15{16}  2000 м  метель  5/0 средняя 
[Ac trans]
-16.9 -19.5 80 -27  993.7  -2.8  745  321           
09 20.01.17 180 (Ю) 10-13{16}  4000 м  метель  9/0 средняя 
[Ac trans]
-17.1 -19.7 80 -26  991.9  -1.9  743  321           
12 20.01.17 190 (Ю) 10-12{15}  4000 м  метель  9/6 300 м средняя 
[Sc|Ac trans]
-15.5 -18.2 80 -24  991.7  -0.1  743  319           
15 20.01.17 190 (Ю) 10-14{14}  4000 м  слаб. снег  10/0 средняя 
[As trans]
-14.8 -17.5 80 -23  990.5  -1.2  742  318    -14.8  0.3     
18 20.01.17 190 (Ю) 10-13{13}  4000 м  слаб. снег  10/10 300 м 
[Sc]
-15.2 -17.9 80 -24  990.6  0.1  742  318           
21 20.01.17 160 (Ю) 5{13}  10 км  {снег}  3/3 600 м 
[Sc]
-16 -18.7 80 -22  990.9  0.3  743  319           
00 21.01.17 170 (Ю) 6{13}  10 км  {снег}  6/0 средняя 
[Ac trans]
-14.7 -17.4 80 -21  990.9  743  318           
03 21.01.17 150 (ЮВ) 6{10}  4000 м  слаб. снег  10/0 средняя 
[As trans]
-15.2 -17.9 80 -22  990.7  -0.2  742  318  -16.9    0.2  43  неравномерный
сухой снег
100% 
06 21.01.17 140 (ЮВ) 8{11}  10 км  позёмок{снег}  9/0 средняя 
[Ac trans]
-16.5 -19.4 78 -24  989.8  -0.9  742  320           
09 21.01.17 140 (ЮВ) 7{11}  4000 м  слаб. снег  10/0 средняя 
[As trans]
-15.7 -18.4 80 -23  988.7  -1.1  741  318           
12 21.01.17 140 (ЮВ) 7{11}  4000 м  слаб. снег  10/0 средняя 
[As trans]
-15.6 -19 75 -23  988.3  -0.4  741  318           
15 21.01.17 130 (ЮВ) 4000 м  слаб. снег  10/0 средняя 
[As trans]
-16.8 -20.2 75 -23  987.2  -1.1  740  319    -15  0.4     
18 21.01.17 130 (ЮВ) 4000 м  слаб. снег  10/0 средняя 
[As trans]
-16.6 -19.2 80 -23  986.2  -1  739  319           
21 21.01.17 140 (ЮВ) 4000 м  слаб. снег  10/0 средняя 
[As trans]
-17.9 -21.3 75 -22  986.4  0.1  814  353           
Время (UTC), дата Ветер
(°,м/с) 
Видим.   Явления Облачность Т
(°С)
Тd
(°С)
f(%) Тe
(°С)
Pmin
(гПа)
dP
(гПа)
Po
(мм)
O2
(г/м3)
Тmin Tmax R s Состояние
почвы

Для получения пояснительной информации подведите курсор к названию столбца.

ПОГОДА в Ныде - архив

Всё, что Вы хотите узнать о погоде в Ныде - удобно и подробно!

Выберите нужную дату (начиная с 1 января 2015* года) и нажмите кнопку "Найти".
Будут отображены архивные сводки погоды по пункту Ныда, начиная с указанной даты.


Отображать данные в формате CSV (для использования в таблицах Excel)


Внимание! Наш архив погоды предназначен исключительно для личного некоммерческого использования в познавательных целях. Если Вам необходимы официальные справки о состоянии погоды (для производственных, юридических, коммерческих и т.п. целей), обращайтесь в органы Росгидромета.

*Примечание: данная дата относится к архиву по метеостанциям СССР (Россия, СНГ, Балтия).
Архив по метеостанциям Зарубежной Европы и Азии (кроме Китая) хранится 10 дней, по другим регионам земного шара (Китай, Африка, Америка, Австралия, Океания) - 1 день.

Ныда - район местоположения метеостанции


Название, широта, долгота, высота метеостанции:
Ныда 66.7°ш. 72.9°д. 10 м над ур. моря [Российская Федерация]

Дополнительная информация

В oтличие oт бoльшинства пoгoдных сайтoв мы публикуем пoдрoбную метеoинфoрмацию в детальнoм прoфессиoнальнoм фoрмате.

Характеристики температуры и влажнoсти вoздуха измеряются на высoте 2 м в тени вдали oт зданий и деревьев.
Скoрoсть ветра измеряется на высoте 10 м (на урoвне рoста челoвека скoрoсть ветра ниже в 1.5-2 раза). Если метеoстанция нахoдится в гoрoде или в лесу, тo скoрoсть ветра занижена на 2-4 м/с пo сравнению с oткрытым местoм. Скoрoсть ветра над акватoриями крупных рек и oзёр, а также на вершинах хoлмoв на 2-5 м/с выше, чем в oбычных услoвиях.
Атмoсфернoе давление в разных тoчках местнoсти мoжет значительнo oтличаться oт давления на метеoстанции, в зависимoсти oт услoвий рельефа (при пoдъёме на 10 м давление пoнижается примернo на 1 мм рт.ст.).